COSMOS 1691 DEB, 16267

Orbit data source: Space-Track

COSMOS 1691 DEB, 16267 is space debris in LEO originally from a launch on Wed, 09 Oct 1985 UTC launched from the Plesetsk Missile And Space Complex (PKMTR). Debris objects in space refer to the collection of defunct objects orbiting the Earth. Examples of debris include non-operational satellites, rocket bodies, and fragments generated from explosions, collisions, or faulty payload assembly.

Loading next visibility...
Identifier
16267, 1985-094L
Orbit
LEO
Country
Flag of CISCIS
Related business
Manufacturer
Unknown
Mission
Spacecraft
Bus & Motor
Unknown
Mass
Unknown
Launch date (UTC)
1985-10-09 (41 years ago)
Launch vehicle
Unknown
Launch site
Plesetsk Missile And Space Complex (PKMTR)
Object type
Payload
Rocket body
Debris
Shape & HBR
Unknown shape, 0.1 m
Radar Cross Section
Small (<0.1 m²)

Expand to show TLE details & history
Last TLE update: 3 days ago

TLE from 3 days ago
0 COSMOS 1691 DEB
1 16267U 85094L   26170.96839338  .00002231  00000-0  53629-2 0  9998
2 16267  82.6332 151.3635 0090658  91.6033 325.1935 13.20435092544765
Epoch: 2026-06-19T23:14Z
TLE epoch observation values (Epoch: 2026-06-19T23:14:29.188Z)
Latitude
55.59349°
Longitude
-94.62286°
Altitude
1,136.173 km
Speed
7.317 km/s
True Right ascension
10h 48m 45s
True Declination
55° 26' 28"
Sunlit
Object was in daylight at epoch
Visualization orbit readout
Latitude
Unknown
Longitude
Unknown
Altitude
Unknown
Speed
Unknown
Apparent Right ascension
Unknown
Apparent Declination
Unknown
Sunlit
N/A
Visualization observer readout
Local Sidereal Time
00:50:32
Azimuth
Unknown
Elevation
Unknown
Doppler factor
Unknown
Orbital elements
Apogee altitude
1,248.818 km
Perigee altitude
1,111.772 km
Semi-major axis
7,558.432 km
Eccentricity
0.00907
Inclination
82.6332°
RAAN
151.3635°
Arg. of periapsis
91.6033°
True anomaly
324.59495°
Mean anomaly
325.1935°
Eccentric anomaly
324.89479°
Mean motion
3.3029 °/min
Orbital period
109 mins
BSTAR
0.0053629
Loading maneuver chart data...
Computing Atmospheric mass density...
Loading historical data...
Loading historical data...
Loading historical data...
Loading historical data...
Loading historical data...
Loading historical data...
Loading historical data...

Documentation

Showing up to 5 results
|